Location: Newark
(40.9833°N, 0.0333°W)
Time: 19:11:16
(UTC+00:00)

ISS - Visible Passes

Search period start: 20 March 2019 00:00
Search period end: 30 March 2019 00:00
Orbit: 406 x 411 km, 51.6° (Epoch: 21 March)

Date Brightness Start Highest point End Pass type
(mag) Time Alt. Az. Time Alt. Az. Time Alt. Az.
20 Mar -1.5 20:15:40 10° SW 20:16:46 19° SW 20:16:46 19° SW visible
21 Mar -3.5 19:24:51 10° SSW 19:28:00 43° SE 19:28:52 34° E visible
22 Mar -2.7 20:10:22 10° WSW 20:13:31 41° NNW 20:13:33 41° NNW visible
23 Mar -3.6 19:19:08 10° WSW 19:22:25 71° NW 19:25:12 14° NE visible
23 Mar -0.5 20:57:06 10° WNW 20:57:58 14° NW 20:57:58 14° NW visible
24 Mar -1.6 20:05:28 10° WNW 20:08:11 23° NNW 20:09:25 19° N visible
25 Mar -2.2 19:13:56 10° W 19:16:57 33° NNW 19:19:59 10° NE visible
25 Mar -0.7 20:52:27 10° NW 20:53:28 13° NNW 20:53:28 13° NNW visible
26 Mar -1.2 20:00:46 10° NW 20:02:55 16° NNW 20:04:39 12° NNE visible
27 Mar -1.4 19:09:03 10° WNW 19:11:35 20° NNW 19:14:07 10° NNE visible
27 Mar -0.8 20:47:28 10° NNW 20:48:27 12° N 20:48:27 12° N visible
28 Mar -1.0 19:55:59 10° NW 19:57:42 13° N 19:59:24 10° NNE visible
29 Mar -1.1 19:04:18 10° NW 19:06:17 15° N 19:08:16 10° NNE visible
29 Mar -1.0 20:41:54 10° NNW 20:43:08 14° N 20:43:08 14° N visible
